Location: Newark
(53.3469°N, 7.1606°E)
Time: 01:17:51
(UTC+00:00)

Envisat - Visible Passes

Search period start: 12 November 2019 00:00
Search period end: 22 November 2019 00:00
Orbit: 764 x 766 km, 98.1° (Epoch: 11 November)

Date Brightness Start Highest point End Pass type
(mag) Time Alt. Az. Time Alt. Az. Time Alt. Az.
12 Nov 5.8 05:19:53 10° NE 05:23:39 21° E 05:27:25 10° SE visible
12 Nov 3.2 16:40:14 10° SE 16:45:06 49° ENE 16:50:00 10° N visible
12 Nov 4.9 18:19:53 10° SSW 18:24:21 31° W 18:28:51 10° NNW visible
13 Nov 6.5 04:45:30 10° ENE 04:46:18 10° E 04:47:08 10° E visible
13 Nov 3.6 17:42:20 10° S 17:47:20 58° W 17:52:22 10° NNW visible
14 Nov 5.1 05:44:53 10° NNE 05:49:26 32° E 05:53:58 10° SSE visible
14 Nov 2.9 17:05:27 10° SSE 17:10:31 76° ENE 17:15:38 10° NNW visible
14 Nov 5.6 18:46:28 10° SW 18:50:07 20° W 18:53:50 10° NW visible
15 Nov 6.0 05:08:57 10° NE 05:12:14 17° E 05:15:31 10° SE visible
15 Nov 3.4 16:29:09 10° SE 16:33:53 41° ENE 16:38:39 10° N visible
15 Nov 4.5 18:08:18 10° SSW 18:12:59 37° W 18:17:42 10° NNW visible
16 Nov 4.1 06:10:09 10° NNE 06:15:07 50° E 06:20:02 10° S visible
16 Nov 3.3 17:30:58 10° S 17:36:02 71° WSW 17:41:09 10° NNW visible
16 Nov 6.1 19:13:57 10° WSW 19:16:01 12° W 19:18:06 10° WNW visible
17 Nov 5.4 05:33:46 10° NE 05:38:04 26° E 05:42:19 10° SSE visible
17 Nov 3.0 16:54:16 10° SSE 16:59:16 63° ENE 17:04:19 10° N visible
17 Nov 5.3 18:34:40 10° SW 18:38:44 24° W 18:42:49 10° NW visible
18 Nov 6.1 04:58:10 10° NE 05:00:48 14° E 05:03:25 10° ESE visible
18 Nov 3.6 16:18:08 10° SE 16:22:41 35° ENE 16:27:16 10° N visible
18 Nov 4.1 17:56:47 10° S 18:01:38 44° W 18:06:31 10° NNW visible
19 Nov 4.5 05:58:57 10° NNE 06:03:47 41° E 06:08:34 10° SSE visible
19 Nov 3.0 17:19:39 10° SSE 17:24:44 85° WSW 17:29:52 10° NNW visible
19 Nov 5.9 19:01:40 10° WSW 19:04:34 15° W 19:07:30 10° NW visible
20 Nov 5.7 05:22:43 10° NE 05:26:40 22° E 05:30:35 10° SE visible
20 Nov 3.1 16:43:06 10° SE 16:48:01 52° ENE 16:52:59 10° N visible
20 Nov 5.0 18:22:58 10° SSW 18:27:20 28° W 18:31:44 10° NNW visible
21 Nov 6.3 04:47:45 10° ENE 04:49:21 11° E 04:50:55 10° E visible
21 Nov 3.6 06:24:19 10° NNE 06:29:24 65° ESE 06:34:27 10° S visible
21 Nov 3.8 16:07:09 10° ESE 16:11:30 29° ENE 16:15:52 10° N visible
21 Nov 3.7 17:45:20 10° S 17:50:18 54° W 17:55:19 10° NNW visible
